[{"OBJECT_NAME":"HST","OBJECT_ID":"1990-037B","EPOCH":"2026-09-12T05:15:24.763104","MEAN_MOTION":15.31621652,"ECCENTRICITY":0.00017951,"INCLINATION":28.473,"RA_OF_ASC_NODE":205.3366,"ARG_OF_PERICENTER":39.5104,"MEAN_ANOMALY":320.5623,"EPHEMERIS_TYPE":0,"CLASSIFICATION_TYPE":"U","NORAD_CAT_ID":20580,"ELEMENT_SET_NO":999,"REV_AT_EPOCH":80192,"BSTAR":0.00014867041,"MEAN_MOTION_DOT":0.00004906,"MEAN_MOTION_DDOT":0},{"OBJECT_NAME":"POLAR","OBJECT_ID":"1996-013A","EPOCH":"2026-09-11T07:18:24.221664","MEAN_MOTION":1.29845775,"ECCENTRICITY":0.655829,"INCLINATION":79.982,"RA_OF_ASC_NODE":226.0171,"ARG_OF_PERICENTER":206.1267,"MEAN_ANOMALY":95.8749,"EPHEMERIS_TYPE":0,"CLASSIFICATION_TYPE":"U","NORAD_CAT_ID":23802,"ELEMENT_SET_NO":999,"REV_AT_EPOCH":14597,"BSTAR":0,"MEAN_MOTION_DOT":0.00000104,"MEAN_MOTION_DDOT":0},{"OBJECT_NAME":"SWAS","OBJECT_ID":"1998-071A","EPOCH":"2026-09-12T06:26:00.233664","MEAN_MOTION":15.10080214,"ECCENTRICITY":0.00033088,"INCLINATION":69.8982,"RA_OF_ASC_NODE":2.8729,"ARG_OF_PERICENTER":147.0198,"MEAN_ANOMALY":213.1174,"EPHEMERIS_TYPE":0,"CLASSIFICATION_TYPE":"U","NORAD_CAT_ID":25560,"ELEMENT_SET_NO":999,"REV_AT_EPOCH":51041,"BSTAR":0.00017136976,"MEAN_MOTION_DOT":0.00002692,"MEAN_MOTION_DDOT":0},{"OBJECT_NAME":"CXO","OBJECT_ID":"1999-040B","EPOCH":"2026-09-13T15:32:27.077568","MEAN_MOTION":0.37808225,"ECCENTRICITY":0.76964658,"INCLINATION":57.3946,"RA_OF_ASC_NODE":114.3238,"ARG_OF_PERICENTER":309.4554,"MEAN_ANOMALY":0.6118,"EPHEMERIS_TYPE":0,"CLASSIFICATION_TYPE":"U","NORAD_CAT_ID":25867,"ELEMENT_SET_NO":999,"REV_AT_EPOCH":1766,"BSTAR":0,"MEAN_MOTION_DOT":0.0000075,"MEAN_MOTION_DDOT":0},{"OBJECT_NAME":"XMM-NEWTON","OBJECT_ID":"1999-066A","EPOCH":"2026-09-14T02:38:50.715744","MEAN_MOTION":0.50126814,"ECCENTRICITY":0.46491325,"INCLINATION":64.0154,"RA_OF_ASC_NODE":281.8333,"ARG_OF_PERICENTER":63.3176,"MEAN_ANOMALY":0.1184,"EPHEMERIS_TYPE":0,"CLASSIFICATION_TYPE":"U","NORAD_CAT_ID":25989,"ELEMENT_SET_NO":999,"REV_AT_EPOCH":2345,"BSTAR":0,"MEAN_MOTION_DOT":5e-7,"MEAN_MOTION_DDOT":0},{"OBJECT_NAME":"TERRA","OBJECT_ID":"1999-068A","EPOCH":"2026-09-12T06:12:30.582720","MEAN_MOTION":14.6115869,"ECCENTRICITY":0.00015531,"INCLINATION":97.9374,"RA_OF_ASC_NODE":301.3181,"ARG_OF_PERICENTER":353.3189,"MEAN_ANOMALY":48.7649,"EPHEMERIS_TYPE":0,"CLASSIFICATION_TYPE":"U","NORAD_CAT_ID":25994,"ELEMENT_SET_NO":999,"REV_AT_EPOCH":42232,"BSTAR":0.000055820628,"MEAN_MOTION_DOT":0.00000231,"MEAN_MOTION_DDOT":0},{"OBJECT_NAME":"TIMED","OBJECT_ID":"2001-055B","EPOCH":"2026-09-12T04:20:07.357344","MEAN_MOTION":14.95450248,"ECCENTRICITY":0.00019425,"INCLINATION":74.0665,"RA_OF_ASC_NODE":59.8333,"ARG_OF_PERICENTER":237.204,"MEAN_ANOMALY":122.8958,"EPHEMERIS_TYPE":0,"CLASSIFICATION_TYPE":"U","NORAD_CAT_ID":26998,"ELEMENT_SET_NO":999,"REV_AT_EPOCH":34382,"BSTAR":0.000080928842,"MEAN_MOTION_DOT":0.00000855,"MEAN_MOTION_DDOT":0},{"OBJECT_NAME":"CORIOLIS","OBJECT_ID":"2003-001A","EPOCH":"2026-09-12T00:13:29.603424","MEAN_MOTION":14.19965807,"ECCENTRICITY":0.00133769,"INCLINATION":98.7167,"RA_OF_ASC_NODE":260.5837,"ARG_OF_PERICENTER":327.1181,"MEAN_ANOMALY":32.9162,"EPHEMERIS_TYPE":0,"CLASSIFICATION_TYPE":"U","NORAD_CAT_ID":27640,"ELEMENT_SET_NO":999,"REV_AT_EPOCH":22654,"BSTAR":0.000055517233,"MEAN_MOTION_DOT":7.4e-7,"MEAN_MOTION_DDOT":0},{"OBJECT_NAME":"SORCE","OBJECT_ID":"2003-004A","EPOCH":"2026-09-12T03:07:18.098112","MEAN_MOTION":15.04097885,"ECCENTRICITY":0.00184367,"INCLINATION":39.99,"RA_OF_ASC_NODE":125.4775,"ARG_OF_PERICENTER":312.8964,"MEAN_ANOMALY":47.0283,"EPHEMERIS_TYPE":0,"CLASSIFICATION_TYPE":"U","NORAD_CAT_ID":27651,"ELEMENT_SET_NO":999,"REV_AT_EPOCH":28499,"BSTAR":0.00014366909,"MEAN_MOTION_DOT":0.00001879,"MEAN_MOTION_DDOT":0},{"OBJECT_NAME":"MOST","OBJECT_ID":"2003-031D","EPOCH":"2026-09-12T06:59:53.003616","MEAN_MOTION":14.2133739,"ECCENTRICITY":0.00099627,"INCLINATION":98.7081,"RA_OF_ASC_NODE":261.8151,"ARG_OF_PERICENTER":7.7134,"MEAN_ANOMALY":352.4194,"EPHEMERIS_TYPE":0,"CLASSIFICATION_TYPE":"U","NORAD_CAT_ID":27843,"ELEMENT_SET_NO":999,"REV_AT_EPOCH":20308,"BSTAR":0.000035651872,"MEAN_MOTION_DOT":3.4e-7,"MEAN_MOTION_DDOT":0},{"OBJECT_NAME":"SCISAT 1","OBJECT_ID":"2003-036A","EPOCH":"2026-09-12T06:26:52.262016","MEAN_MOTION":14.81535573,"ECCENTRICITY":0.00065648,"INCLINATION":73.9324,"RA_OF_ASC_NODE":358.3078,"ARG_OF_PERICENTER":32.7106,"MEAN_ANOMALY":327.4476,"EPHEMERIS_TYPE":0,"CLASSIFICATION_TYPE":"U","NORAD_CAT_ID":27858,"ELEMENT_SET_NO":999,"REV_AT_EPOCH":24434,"BSTAR":0.00005919667,"MEAN_MOTION_DOT":0.00000428,"MEAN_MOTION_DDOT":0},{"OBJECT_NAME":"SWIFT","OBJECT_ID":"2004-047A","EPOCH":"2026-09-12T05:58:08.562144","MEAN_MOTION":15.80115486,"ECCENTRICITY":0.00021388,"INCLINATION":20.5507,"RA_OF_ASC_NODE":228.4892,"ARG_OF_PERICENTER":171.2867,"MEAN_ANOMALY":188.7618,"EPHEMERIS_TYPE":0,"CLASSIFICATION_TYPE":"U","NORAD_CAT_ID":28485,"ELEMENT_SET_NO":999,"REV_AT_EPOCH":20059,"BSTAR":0.00065200008,"MEAN_MOTION_DOT":0.00130959,"MEAN_MOTION_DDOT":0},{"OBJECT_NAME":"HINODE (SOLAR-B)","OBJECT_ID":"2006-041A","EPOCH":"2026-09-12T01:12:48.801312","MEAN_MOTION":14.6871832,"ECCENTRICITY":0.0017788,"INCLINATION":98.0551,"RA_OF_ASC_NODE":269.928,"ARG_OF_PERICENTER":17.032,"MEAN_ANOMALY":343.1479,"EPHEMERIS_TYPE":0,"CLASSIFICATION_TYPE":"U","NORAD_CAT_ID":29479,"ELEMENT_SET_NO":999,"REV_AT_EPOCH":6762,"BSTAR":0.000074462784,"MEAN_MOTION_DOT":0.00000385,"MEAN_MOTION_DDOT":0},{"OBJECT_NAME":"SHIJIAN-6 02A (SJ-6 02A)","OBJECT_ID":"2006-046A","EPOCH":"2026-09-12T06:29:23.296992","MEAN_MOTION":15.1777981,"ECCENTRICITY":0.00028593,"INCLINATION":97.6285,"RA_OF_ASC_NODE":297.0105,"ARG_OF_PERICENTER":167.8392,"MEAN_ANOMALY":192.2911,"EPHEMERIS_TYPE":0,"CLASSIFICATION_TYPE":"U","NORAD_CAT_ID":29505,"ELEMENT_SET_NO":999,"REV_AT_EPOCH":8547,"BSTAR":0.00021940587,"MEAN_MOTION_DOT":0.00004363,"MEAN_MOTION_DDOT":0},{"OBJECT_NAME":"SHIJIAN-6 02B (SJ-6 02B)","OBJECT_ID":"2006-046B","EPOCH":"2026-09-12T07:36:03.585888","MEAN_MOTION":15.01476579,"ECCENTRICITY":0.00160956,"INCLINATION":97.6994,"RA_OF_ASC_NODE":283.7834,"ARG_OF_PERICENTER":133.6423,"MEAN_ANOMALY":226.6139,"EPHEMERIS_TYPE":0,"CLASSIFICATION_TYPE":"U","NORAD_CAT_ID":29506,"ELEMENT_SET_NO":999,"REV_AT_EPOCH":8381,"BSTAR":0.000023670244,"MEAN_MOTION_DOT":0.00000246,"MEAN_MOTION_DDOT":0},{"OBJECT_NAME":"FGRST (GLAST)","OBJECT_ID":"2008-029A","EPOCH":"2026-09-12T07:16:54.312096","MEAN_MOTION":15.24338581,"ECCENTRICITY":0.00074639,"INCLINATION":25.583,"RA_OF_ASC_NODE":319.4079,"ARG_OF_PERICENTER":274.8901,"MEAN_ANOMALY":85.0785,"EPHEMERIS_TYPE":0,"CLASSIFICATION_TYPE":"U","NORAD_CAT_ID":33053,"ELEMENT_SET_NO":999,"REV_AT_EPOCH":899,"BSTAR":0.000083961174,"MEAN_MOTION_DOT":0.00002452,"MEAN_MOTION_DDOT":0},{"OBJECT_NAME":"SDO","OBJECT_ID":"2010-005A","EPOCH":"2026-09-12T01:26:30.969888","MEAN_MOTION":1.00274865,"ECCENTRICITY":0.00017254,"INCLINATION":34.8306,"RA_OF_ASC_NODE":85.0195,"ARG_OF_PERICENTER":72.3988,"MEAN_ANOMALY":113.6531,"EPHEMERIS_TYPE":0,"CLASSIFICATION_TYPE":"U","NORAD_CAT_ID":36395,"ELEMENT_SET_NO":999,"REV_AT_EPOCH":6093,"BSTAR":0,"MEAN_MOTION_DOT":-6.8e-7,"MEAN_MOTION_DDOT":0},{"OBJECT_NAME":"CRYOSAT 2","OBJECT_ID":"2010-013A","EPOCH":"2026-09-12T06:22:17.443488","MEAN_MOTION":14.51904265,"ECCENTRICITY":0.00023983,"INCLINATION":92.0283,"RA_OF_ASC_NODE":298.4493,"ARG_OF_PERICENTER":84.6601,"MEAN_ANOMALY":275.488,"EPHEMERIS_TYPE":0,"CLASSIFICATION_TYPE":"U","NORAD_CAT_ID":36508,"ELEMENT_SET_NO":999,"REV_AT_EPOCH":87071,"BSTAR":0.000013858403,"MEAN_MOTION_DOT":5.9e-7,"MEAN_MOTION_DDOT":0},{"OBJECT_NAME":"X-SAT","OBJECT_ID":"2011-015C","EPOCH":"2026-09-12T05:01:33.589920","MEAN_MOTION":14.25227034,"ECCENTRICITY":0.00152884,"INCLINATION":98.3613,"RA_OF_ASC_NODE":228.13,"ARG_OF_PERICENTER":87.1147,"MEAN_ANOMALY":273.1783,"EPHEMERIS_TYPE":0,"CLASSIFICATION_TYPE":"U","NORAD_CAT_ID":37389,"ELEMENT_SET_NO":999,"REV_AT_EPOCH":80007,"BSTAR":-0.000013728764,"MEAN_MOTION_DOT":-7.3e-7,"MEAN_MOTION_DDOT":0},{"OBJECT_NAME":"GCOM-W1 (SHIZUKU)","OBJECT_ID":"2012-025A","EPOCH":"2026-09-12T07:56:13.510752","MEAN_MOTION":14.57132154,"ECCENTRICITY":0.00014777,"INCLINATION":98.2063,"RA_OF_ASC_NODE":194.5789,"ARG_OF_PERICENTER":87.2935,"MEAN_ANOMALY":74.2461,"EPHEMERIS_TYPE":0,"CLASSIFICATION_TYPE":"U","NORAD_CAT_ID":38337,"ELEMENT_SET_NO":999,"REV_AT_EPOCH":76172,"BSTAR":0.000075197762,"MEAN_MOTION_DOT":0.00000294,"MEAN_MOTION_DDOT":0},{"OBJECT_NAME":"NUSTAR","OBJECT_ID":"2012-031A","EPOCH":"2026-09-12T08:00:01.999872","MEAN_MOTION":15.09519641,"ECCENTRICITY":0.00087565,"INCLINATION":6.0271,"RA_OF_ASC_NODE":100.0747,"ARG_OF_PERICENTER":318.805,"MEAN_ANOMALY":50.8558,"EPHEMERIS_TYPE":0,"CLASSIFICATION_TYPE":"U","NORAD_CAT_ID":38358,"ELEMENT_SET_NO":999,"REV_AT_EPOCH":130,"BSTAR":0.000070553798,"MEAN_MOTION_DOT":0.00002027,"MEAN_MOTION_DDOT":0},{"OBJECT_NAME":"NEOSSAT","OBJECT_ID":"2013-009D","EPOCH":"2026-09-12T00:54:50.188896","MEAN_MOTION":14.35852381,"ECCENTRICITY":0.0010842,"INCLINATION":98.4225,"RA_OF_ASC_NODE":73.0349,"ARG_OF_PERICENTER":354.0028,"MEAN_ANOMALY":6.1026,"EPHEMERIS_TYPE":0,"CLASSIFICATION_TYPE":"U","NORAD_CAT_ID":39089,"ELEMENT_SET_NO":999,"REV_AT_EPOCH":70920,"BSTAR":0.000045653216,"MEAN_MOTION_DOT":8.9e-7,"MEAN_MOTION_DDOT":0},{"OBJECT_NAME":"BRITE-AUSTRIA","OBJECT_ID":"2013-009F","EPOCH":"2026-09-12T01:30:46.800288","MEAN_MOTION":14.36570644,"ECCENTRICITY":0.00098758,"INCLINATION":98.4046,"RA_OF_ASC_NODE":72.3795,"ARG_OF_PERICENTER":347.7117,"MEAN_ANOMALY":12.3827,"EPHEMERIS_TYPE":0,"CLASSIFICATION_TYPE":"U","NORAD_CAT_ID":39091,"ELEMENT_SET_NO":999,"REV_AT_EPOCH":70952,"BSTAR":0.000047801257,"MEAN_MOTION_DOT":9.8e-7,"MEAN_MOTION_DDOT":0},{"OBJECT_NAME":"IRIS","OBJECT_ID":"2013-033A","EPOCH":"2026-09-12T07:11:47.857344","MEAN_MOTION":14.86032228,"ECCENTRICITY":0.00252738,"INCLINATION":97.9282,"RA_OF_ASC_NODE":94.2995,"ARG_OF_PERICENTER":36.5528,"MEAN_ANOMALY":323.7406,"EPHEMERIS_TYPE":0,"CLASSIFICATION_TYPE":"U","NORAD_CAT_ID":39197,"ELEMENT_SET_NO":999,"REV_AT_EPOCH":71331,"BSTAR":0.000079621554,"MEAN_MOTION_DOT":0.00000644,"MEAN_MOTION_DDOT":0}]